Simultaneous Nadir Overpasses (SNOs) Predictions

Prediction of SNOs near US between NOAA-19 and NPP Satellite Orbit:

Table of predicted SNOs near US for the next 10.0 days since TLE Epoch: 6/22/2012
Index Date (NOAA-19) Time (NOAA-19) NOAA-19 Lat,Lon Date (NPP) Time (NPP) NPP Lat,Lon Distance(km) Time Diff (sec)
1 06/22/2012 06:42:06 24.79, -73.27 06/22/2012 06:34:53 24.90, -73.80 55.80 433
2 06/22/2012 08:25:33 20.03, -99.99 06/22/2012 08:17:44 20.14,-100.37 41.10 469
3 06/22/2012 10:07:02 22.14,-124.99 06/22/2012 09:59:00 20.95,-125.54 144.12 482




NCC Satellite Simultaneous Nadir Overpasses (SNOs) Prediction Service
